Volver al catálogo

STARLINK-32626

ActivoComunicacionesVLEO
NORAD 62123·PAYLOAD·🇺🇸 United States

Lanzado Nov 27, 2024 desde Cape Canaveral Space Force Station

Loading…

Próximos Pases (próximas 24 horas)

TLE

ActualizadoSource: CelesTrak SupGP

Época: Sep 14, 2026, 20:48 UTC

1 62123C 24222K   26257.86715278 -.00040630  00000+0 -14718-2 0  2576
2 62123  43.0010 148.0227 0001303 266.3735 277.0973 15.27595389    17

Sigue STARLINK-32626 en tiempo real con AllMySat

Download on the App Store